Weather in Pontonny

Russia / Saint-Petersburg and Leningrad Oblast     59°46′57″N   30°38′11″E
temp.,
°C
wind,
m/s
gust,
m/s
humid.,
%
clouds,
%
prec.,
mm/h
press.,
hPa
HPBL,
m
4 december, sat
sat400:00−7nne3895100 0.2 994309
03:00−7nne389496 0.3 996346
06:00−7n279692 0.3 998392
09:00−7n259791 0.6 1001195
12:00−7ne2794100 0.3 1004608
15:00−8ne2793100 0.4 1006537
18:00−10ne2894100 0.1 1008438
21:00−11ene3894100 0.2 1011442
5 december, sun
sun500:00−12ene389495 0.1 1013399
03:00−13ene389375 0.2 1014396
06:00−14ene399469 0.0 1015309
09:00−15ene3109119 0.0 1017316
12:00−15ene38917 0.0 1019326
15:00−16ne38935 0.0 1020256
18:00−18ene29955 0.0 1022199
21:00−19ene28965 0.0 1023184
6 december, mon
mon600:00−19ene28965 0.0 1024171
03:00−20ene27965 0.0 1025148
06:00−20ene28965 0.0 1025147
09:00−21ene28955 0.0 1025143
12:00−18ene28905 0.0 1024205
15:00−17ene26935 0.0 1023180
18:00−21ene26985 0.0 102299
21:00−23ne129967 0.0 102233
7 december, tue
tue700:00−18ne139866 0.1 102080
03:00−17ne1397100 0.1 1019109
06:00−16n139881 0.1 101894
09:00−17nw139978 0.1 101750
12:00−14nw249771 0.1 1017112
15:00−13w139872 0.1 101659
18:00−13wnw269891 0.1 1016114
21:00−12wnw389692 0.2 1017204
8 december, wed
wed800:00−12wnw389682 0.1 1017203
03:00−14wnw379777 0.1 1018154
06:00−15wnw379768 0.0 1019145
09:00−17wnw269855 0.0 1020108
12:00−14wnw269675 0.0 1021137
15:00−14wnw259750 0.0 1022104
18:00−16wnw259873 0.0 102379
21:00−17wnw249979 0.0 102465